Location: Mitty Observatory
(35.9148°N, 88.8847°W)
Time: 04:55:41
(UTC-06:00)

LightSail 2 - Pass Details

Date: 15 November 2019
Orbit: 696 x 730 km, 24.0° (Epoch: 15 December)

Event Time Altitude Azimuth Distance (km) Brightness Sun altitude
Exits shadow 05:28:54 - 238° (WSW) 2,416 7.5 -12.9°
Reaches altitude 10° 05:29:42 10° 232° (SW) 2,211 7.3 -12.8°
Maximum altitude 05:33:08 18° 191° (S) 1,747 7.2 -12.1°
Drops below altitude 10° 05:36:34 10° 150° (SSE) 2,212 8.4 -11.4°
Sets 05:39:45 0° 131° (SE) 3,131 9.8 -10.8°
